• Join FlightAware (Why Join?)
  • Login
  • US Flag 
Rudolph Flight #1: Scheduled 
09:58PM EST


 

Airport Tracker/Info


-or-


 

Live Flight TrackerFlight Track Log ✈ CTL17 ✈ 07-May-2013 ✈ KMBS - KYIP

Flight Track Log - Related Links

Times and Time Zones

All times are in EDT time to prevent confusion due to time zone crossing. See the CTL17 flight status page for this flight to view local times or setup timezone preferences in your user account.

Time Position Orientation Groundspeed Altitude Reporting Facility
EDT Latitude Longitude Course Direction KTS MPH feet Rate Location/Type
04:48PM 43.3619 -84.0057 160° South  Level Estimated
04:49PM 43.3366 -83.9838 148° Southeast  Level FlightAware Approximate
04:50PM 43.3080 -83.9718 160° South  Level Estimated
04:51PM 43.2807 -83.9553 156° South  Level FlightAware Approximate
04:52PM 43.2533 -83.9388 156° South  Level FlightAware Approximate
04:53PM 43.2247 -83.9271 163° South  Level Estimated
04:54PM 43.1965 -83.9134 161° South  Level FlightAware Approximate
04:55PM 43.1683 -83.8997 161° South  Level FlightAware Approximate
04:56PM 43.1401 -83.8861 161° South  Level FlightAware Approximate
04:56PM 42.9242 -83.7844 163° South 165 190 5,100  Level Cleveland Center
04:57PM 43.1115 -83.8746 160° South  Level Estimated
04:57PM 42.8853 -83.7683 163° South 165 190 5,100  Level Cleveland Center
04:58PM 43.0835 -83.8603 160° South  Level FlightAware Approximate
04:58PM 42.8442 -83.7464 159° South 163 188 5,200  Level Cleveland Center
04:59PM 43.0555 -83.8461 160° South  Level FlightAware Approximate
04:59PM 42.7967 -83.7297 166° South 170 196 5,100  Level Cleveland Center
05:00PM 43.0275 -83.8318 160° South  Level FlightAware Approximate
05:00PM 42.7486 -83.7272 178° South 167 192 5,100  Level Cleveland Center
05:01PM 42.9995 -83.8176 160° South  Level FlightAware Approximate
05:01PM 42.7031 -83.7222 175° South 165 190 5,100  Level Cleveland Center
05:02PM 42.6553 -83.7169 175° South 165 190 5,100 -60 Level Cleveland Center
05:03PM 42.6075 -83.7089 173° South 171 197 5,000 -180 Descending Cleveland Center
05:04PM 42.5619 -83.6983 170° South 169 194 4,800 -300 Descending Cleveland Center
05:05PM 42.5161 -83.6961 178° South 175 201 4,500 -300 Descending Cleveland Center
05:06PM 42.4708 -83.6769 163° South 173 199 4,300 -240 Descending Cleveland Center
05:07PM 42.4236 -83.6492 157° South 167 192 4,100 -240 Descending Cleveland Center
05:08PM 42.3783 -83.6275 161° South 165 190 3,900 -600 Descending Cleveland Center
05:09PM 42.3283 -83.6222 176° South 183 211 3,000 -780 Descending Cleveland Center
05:10PM 42.2806 -83.6114 170° South 177 204 2,400 -600 Descending Cleveland Center
05:11PM 42.2417 -83.5900 158° South 150 173 1,900 -540 Descending Cleveland Center
05:13PM 42.2400 -83.5484 160° South  Level Estimated
05:20PM 42.2393 -83.5310 160° South  Level Estimated
05:21PM 42.2393 -83.5310 160° South  Level Estimated
05:22PM 42.2393 -83.5310 160° South  Level Estimated